ECHOSTAR 16

Last updated on Sun Jul 06 2025 00:02:44 GMT+0000 (Coordinated Universal Time)

1 39008U 12065A 25186.55255411 -.00000265 00000+0 00000+0 0 9996 2 39008 0.0174 31.8318 0001991 68.1771 321.1983 1.00269954 46146
UTC large
Height (km)
Speed (km/s)
/
Latitude / Longitude
Inclination (degrees)
Orbital Period (minutes)
Azimuth
Elevation
Range (km)
Doppler Factor

Next 0 passes for location: London (51.5072 / 0.1276)

Sorry there are no passes over London.